Home   Weather   Haarlem   Past weeks

Flag for Netherlands Past Weather in Haarlem, Netherlands — Yesterday and Last 2 Weeks

Now
28 °F

Sunny.


Feels Like: 20 °F
Forecast: 32 / 38 °F
Wind: 8 mph from East

Location: Amsterdam Schiphol Airport

Current Time: Dec 4, 2016 at 9:26:29 am

Latest Report: Dec 4, 2016 at 8:55 am


Visibility: 10 mi

Pressure: 30.36 "Hg

Humidity: 93%

Dew Point: 27 °F

Location of HaarlemLocation

Past Weather in Haarlem — Graph

°F

Haarlem Temperature Yesterday

Maximum temperature yesterday: 46 °F (at 12:55 pm)
Minimum temperature yesterday: 28 °F (at 3:55 am)
Average temperature yesterday: 36 °F

High & Low Weather Summary for the Past Weeks

 TemperatureHumidityPressure
High57 °F (Nov 21, 1:25 pm)100% (Nov 21, 2:55 am)30.60 "Hg (Nov 21, 2:55 am)
Low23 °F (Nov 29, 8:55 am)53% (Nov 28, 12:55 pm)29.00 "Hg (Nov 20, 11:25 am)
Average42 °F85%30.09 "Hg
* Reported Nov 19 7:25 am — Dec 4 7:55 am, Haarlem, Weather by CustomWeather, © 2016

Note: Actual official high and low records may vary slightly from our data, if they occured in-between our weather recording intervals... More about our weather records

Advertising

Haarlem Weather History for the Previous 24 Hours

Scroll right to see more
 ConditionsComfort  
Time TempWeatherWind HumidityBarometerVisibility
7:55 am
Sun, Dec 4
28 °FChilly.5 mph93%30.36 "HgN/A
6:55 am27 °FClear.5 mph93%30.33 "Hg3 mi
6:25 am27 °FClear.6 mph93%30.33 "Hg6 mi
5:55 am30 °FClear.5 mph93%30.33 "Hg6 mi
5:25 am28 °FClear.6 mph93%30.33 "Hg4 mi
4:55 am28 °FLight fog.6 mph100%30.33 "Hg4 mi
4:25 am27 °FLight fog.6 mph100%30.33 "Hg5 mi
3:25 am28 °FLight fog.2 mph100%30.33 "Hg0 mi
2:55 am30 °FLight fog.3 mph100%30.33 "Hg1 mi
2:25 am27 °FFog.5 mph100%30.33 "Hg4 mi
1:55 am30 °FFog.3 mph100%30.36 "Hg4 mi
1:25 am30 °FFog.3 mph100%30.33 "Hg4 mi
12:55 am30 °FFog.2 mph93%30.33 "Hg4 mi
11:55 pm
Sat, Dec 3
30 °FFog.1 mph100%30.33 "Hg6 mi
11:25 pm34 °FFog.2 mph93%30.33 "HgN/A
10:55 pm32 °FFog.3 mph93%30.33 "HgN/A
10:25 pm32 °FFog.3 mph100%30.33 "HgN/A
9:55 pm32 °FFog.2 mph93%30.33 "HgN/A
9:25 pm34 °FFog.1 mph93%30.33 "HgN/A
8:55 pm32 °FFog.No wind100%30.33 "HgN/A
8:25 pm30 °FClear.3 mph93%30.33 "Hg10 mi
7:55 pm32 °FPassing clouds.2 mph100%30.33 "HgN/A
7:25 pm34 °FPassing clouds.2 mph93%30.33 "HgN/A
6:55 pm36 °FPassing clouds.2 mph93%30.33 "HgN/A
6:25 pm36 °FPassing clouds.1 mph87%30.30 "HgN/A
5:55 pm36 °FPassing clouds.2 mph87%30.30 "HgN/A
5:25 pm39 °FPassing clouds.2 mph75%30.30 "HgN/A
4:55 pm41 °FPassing clouds.2 mph70%30.30 "HgN/A
4:25 pm43 °FPassing clouds.2 mph66%30.30 "HgN/A
3:55 pm43 °FPassing clouds.6 mph66%30.30 "HgN/A
3:25 pm45 °FScattered clouds.5 mph66%30.30 "HgN/A
2:55 pm45 °FPartly sunny.3 mph66%30.30 "HgN/A
2:25 pm46 °FPartly sunny.6 mph62%30.30 "HgN/A
1:55 pm46 °FPartly sunny.5 mph62%30.30 "HgN/A
1:25 pm46 °FPartly sunny.3 mph66%30.30 "HgN/A
12:55 pm46 °FPartly sunny.2 mph71%30.30 "HgN/A
12:25 pm45 °FPartly sunny.2 mph76%30.33 "HgN/A
11:55 am43 °FPartly sunny.2 mph87%30.33 "HgN/A
11:25 am43 °FPartly sunny.2 mph81%30.33 "HgN/A
10:55 am39 °FPartly sunny.3 mph93%30.33 "HgN/A
10:25 am36 °FPartly sunny.3 mph93%30.33 "HgN/A
9:55 am34 °FPartly sunny.1 mph100%30.33 "HgN/A
9:25 am32 °FPartly sunny.2 mph100%30.30 "HgN/A
Weather by CustomWeather, © 2016

See weather overviewHow to use our weather pages